Tekamah, NE

4:55 AM CDT on August 30, 2016 (GMT -0500)
Tekamah

Weather History for KTQE - January, 2012

Change the Weather History Date:

Sunday, January 29, 2012

  Actual Average Record
Temperature  
Mean Temperature 26 °F -  
Max Temperature 39 °F 34 °F 56 °F (1971)
Min Temperature 12 °F 11 °F -22 °F (1966)
Degree Days  
Heating Degree Days 40    
Moisture  
Dew Point 14 °F    
Average Humidity 50    
Maximum Humidity 77    
Minimum Humidity 33    
Precipitation  
Precipitation 0.00 in - - ()
Sea Level Pressure  
Sea Level Pressure 30.12 in    
Wind  
Wind Speed 10 mph (South)    
Max Wind Speed 17 mph    
Max Gust Speed 23 mph    
Visibility 10 miles    
Events      
Averages and records for this station are not official NWS values.
T = Trace of Precipitation, MM = Missing Value Source: NWS Daily Summary

Daily Weather History Graph

Daily Weather History Graph

Search for Another Location

Airport or City:

Trip Planner

Search our weather history database for the weather conditions in past years. The results will help you decide how hot, cold, wet, or windy it might be!

Date:

Astronomy

Jan. 29, 2012 Rise Set
Actual Time 7:40 AM CST 5:35 PM CST
Civil Twilight 7:10 AM CST 6:05 PM CST
Nautical Twilight 6:37 AM CST 6:38 PM CST
Astronomical Twilight 6:04 AM CST 7:11 PM CST
Moon 10:25 AM CST (1/29) No Moon Set
Length of Visible Light 10h 54m
Length of Day
9h 55m
Waxing Crescent, 37% of the Moon is Illuminated
Jan 29
Waxing Crescent
Jan 30
First Quarter
Feb 7
Full
Feb 14
Last Quarter
Feb 21
New

Hourly Weather History & Observations

Time (CST) Temp. Windchill Dew Point Humidity Pressure Visibility Wind Dir Wind Speed Gust Speed Precip Events Conditions
12:54 AM 34.0 °F 25.0 °F 10.9 °F 38% 30.11 in 10.0 mi West 12.7 mph - N/A   Mostly Cloudy
1:54 AM 35.1 °F 24.8 °F 12.9 °F 40% 30.14 in 10.0 mi NW 17.3 mph 23.0 mph N/A   Clear
2:54 AM 30.0 °F 21.7 °F 12.9 °F 49% 30.17 in 10.0 mi NW 9.2 mph - N/A   Clear
4:54 AM 23.0 °F 11.7 °F 12.9 °F 65% 30.21 in 10.0 mi NW 11.5 mph - N/A   Clear
5:54 AM 21.9 °F 14.5 °F 14.0 °F 72% 30.22 in 10.0 mi NW 5.8 mph - N/A   Clear
6:54 AM 17.1 °F 7.6 °F 10.0 °F 74% 30.25 in 10.0 mi NW 6.9 mph - N/A   Clear
7:54 AM 12.9 °F 5.2 °F 7.0 °F 77% 30.27 in 10.0 mi SW 4.6 mph - N/A   Clear
8:54 AM 21.9 °F 17.2 °F 14.0 °F 72% 30.26 in 10.0 mi WSW 3.5 mph - N/A   Clear
9:54 AM 28.9 °F 23.9 °F 16.0 °F 58% 30.26 in 10.0 mi North 4.6 mph - N/A   Overcast
11:54 AM 32.0 °F - 15.1 °F 50% 30.24 in 10.0 mi Calm Calm - N/A   Overcast
12:54 PM 35.1 °F 31.0 °F 14.0 °F 42% 30.19 in 10.0 mi South 4.6 mph - N/A   Scattered Clouds
1:54 PM 37.0 °F 31.0 °F 12.9 °F 37% 30.15 in 10.0 mi SE 8.1 mph - N/A   Partly Cloudy
2:54 PM 37.9 °F 30.9 °F 12.9 °F 36% 30.12 in 10.0 mi SE 10.4 mph - N/A   Mostly Cloudy
3:54 PM 39.0 °F 30.6 °F 12.0 °F 33% 30.12 in 10.0 mi SSE 15.0 mph - N/A   Scattered Clouds
4:54 PM 37.9 °F 29.2 °F 12.9 °F 36% 30.10 in 10.0 mi SSE 15.0 mph - N/A   Mostly Cloudy
5:54 PM 35.1 °F 27.9 °F 14.0 °F 42% 30.08 in 10.0 mi SE 9.2 mph - N/A   Clear
6:54 PM 35.1 °F 26.9 °F 15.1 °F 44% 30.05 in 10.0 mi SSE 11.5 mph - N/A   Mostly Cloudy
7:54 PM 35.1 °F 27.4 °F 15.1 °F 44% 30.04 in 10.0 mi SSE 10.4 mph - N/A   Mostly Cloudy
8:54 PM 36.0 °F 29.0 °F 17.1 °F 46% 29.99 in 10.0 mi SSE 9.2 mph - N/A   Overcast
9:54 PM 37.0 °F 28.9 °F 18.0 °F 46% 29.95 in 10.0 mi SSE 12.7 mph - 0.00 in   Overcast
10:54 PM 37.0 °F 29.8 °F 18.0 °F 46% 29.91 in 10.0 mi SSE 10.4 mph - N/A   Overcast
11:54 PM 37.0 °F 31.6 °F 18.0 °F 46% 29.90 in 10.0 mi SE 6.9 mph - N/A   Mostly Cloudy